Regional Weather Roundup
Issued by NWS Upton, NY

Current Version | Previous Version | Graphics & Text | Print | Product List | Glossary Off
Versions: 1 2 3 4 5 6 7 8 9 10 11 12 13 14 15 16 17 18 19 20 21 22 23 24 25 26 27 28 29 30 31 32 33 34 35 36 37 38 39 40 41 42 43 44 45 46 47 48 49 50

793
ASUS41 KOKX 181808
RWROKX

Regional Weather Roundup
National Weather Service New York NY
100 PM EST MON DEC 18 2017

Note: "FAIR" indicates few or no clouds below 12,000 feet with no
significant weather and/or obstructions to visibility.

NYZ071-072-176-178-NJZ106-104-181900-
New York City Metro Area

CITY           SKY/WX    TMP DP  RH WIND       PRES   REMARKS
Central Park   CLOUDY    41  33  73 NW7       30.04F
Bronx Bot Gard   N/A     41  32  70 NW2       30.03F
Bronx Lehman C   N/A     39  32  75 NW5         N/A
LaGuardia Arpt PTSUNNY   42  35  76 NE5       30.01F
Queens College   N/A     41  36  81 N3          N/A
Kennedy Intl   PTSUNNY   46  39  76 NW6       30.02F
Breezy Point     N/A     43 N/A N/A W7          N/A
Brooklyn Coll    N/A     45  36  70 W6          N/A
Staten Island    N/A     43  36  75 NW3         N/A
Newark/Liberty CLOUDY    46  36  68 VRB5      30.02F
Teterboro      CLOUDY    42  34  73 CALM      30.01F
$$

NYZ177-179-078>081-181900-
Long Island New York

CITY           SKY/WX    TMP DP  RH WIND       PRES   REMARKS
Jones Beach      N/A     45 N/A N/A NW2         N/A
Wantagh          N/A     46  39  76 NW2         N/A
Matinecock Pt    N/A     39 N/A N/A NE3         N/A
Farmingdale    SUNNY     47  40  76 N5        30.00F
MacArthur/ISP  MOSUNNY   44  41  89 NW8       29.99F
Shirley        PTSUNNY   45  42  89 VRB3      30.00F
Mt Sinai Harb    N/A    N/A N/A N/A N8          N/A
Westhampton    LGT RAIN  37  35  92 N6        30.01F FOG     WCI  32
East Hampton   DRIZZLE   39  38  98 CALM      30.00F
Southold         N/A     39  39 100 NW6         N/A  WCI  35
Montauk          N/A     45  41  86 CALM      30.02F
$$

NYZ052-065-067-181900-
Hudson Valley

CITY           SKY/WX    TMP DP  RH WIND       PRES   REMARKS
White Plains   PTSUNNY   39  33  79 CALM      30.00F
Larchmont Harb   N/A     37 N/A N/A NE2         N/A
Croton On Huds   N/A     37 N/A N/A CALM        N/A
Somers           N/A     36  28  75 S1          N/A
Brewster         N/A     34  27  75 S1          N/A
Newburgh       PTSUNNY   34  28  80 CALM      30.02F
Montgomery     CLOUDY    34  29  82 S3        29.98F
Otisville        N/A     36  30  80 S3          N/A
Warwick          N/A     36  28  75 SE2         N/A
Suffern          N/A     37  32  81 CALM        N/A
Poughkeepsie   CLOUDY    35  26  69 SE3       30.01F
Albany         CLOUDY    33  25  72 S9        29.97F WCI  25
$$

NJZ001-105-106-008-010-013-015-019>022-104-181900-
New Jersey

CITY           SKY/WX    TMP DP  RH WIND       PRES   REMARKS
Newark/Liberty CLOUDY    46  36  68 VRB5      30.02F
Teterboro      CLOUDY    42  34  73 CALM      30.01F
Caldwell       CLOUDY    39  34  82 CALM      30.02F
Somerville     CLOUDY    46  36  68 NW6       30.00F
Linden         CLOUDY    45  35  70 CALM      30.02F
Perth Amboy      N/A     43 N/A N/A NW2         N/A
Sussex         CLOUDY    36  31  82 SW3       29.99F
Andover        NOT AVBL
Trenton        MOSUNNY   48  36  63 VRB3      30.00F
Millville      SUNNY     52  36  54 VRB3      30.01F
Atlantic City  SUNNY     55  36  48 NW12      30.00F
Wrightstown    PTSUNNY   49  35  58 W6        29.98F
Toms River     SUNNY     51  36  56 W10       30.01F
Belmar         SUNNY     50  38  63 VRB7      30.01F
$$

PAZ047>061-062-071-181900-
Eastern Pennsylvania

CITY           SKY/WX    TMP DP  RH WIND       PRES   REMARKS
Philadelphia   PTSUNNY   48  35  60 W5        30.02F
Allentown      MOSUNNY   43  34  70 W6        30.00F HAZE
Scranton       CLOUDY    42  33  70 SW7       29.96F HAZE
$$

CTZ002-004>006-009-010-012-RIZ004-006-007-MAZ004-011-015-181900-
Southern New England

 In CT

CITY           SKY/WX    TMP DP  RH WIND       PRES   REMARKS
Bradley Intl   CLOUDY    31  17  56 SE6       30.02F WCI  25
Hartford       FLURRIES  32  18  56 CALM      30.04F
Danbury        CLOUDY    36  25  64 CALM      30.02F
Wtrbury/Oxford CLOUDY    34  26  72 N3        30.00F
Norwalk Harbor   N/A     37 N/A N/A N5          N/A  WCI  34
Bridgeport     CLOUDY    40  28  62 N7        30.02F
Meriden        CLOUDY    34  20  56 CALM      30.03F
New Haven      CLOUDY    38  24  57 N6        30.01F WCI  33
Chester        CLOUDY    36  30  80 CALM      30.01F
Groton         CLOUDY    37  30  75 N3        30.02F HAZE
Willimantic    LGT RAIN  34  26  72 CALM      30.04F

 In RI

CITY           SKY/WX    TMP DP  RH WIND       PRES   REMARKS
Providence     CLOUDY    35  24  64 N5        30.04F WCI  31
Block Island   LGT RAIN  43  41  93 S8        30.01F FOG
Westerly       CLOUDY    39  30  70 N5        30.03F

In MA

CITY           SKY/WX    TMP DP  RH WIND       PRES   REMARKS
Boston         FLURRIES  31  19  61 CALM      30.05F
Worcester      CLOUDY    30  20  66 SW7       29.98F WCI  23
Westfield      CLOUDY    30  17  58 SW3       30.01F
Provincetown   LGT RAIN  35  24  64 SE6       30.05F WCI  30
Nantucket      CLOUDY    38  30  73 SE9       30.04F WCI  31
$$

ANZ330-335-338-340-345-350-353-355-181900-
Coastal Marine Observations


STATION/POSITION TIME  SKY/WX   TEMP    WIND        PRES    VSBY  WAVE
                                AIR SEA DIR/SP/G                  HT/PER
                 (UTC)          (F)     (DEG/KT/KT) (MB)    (MI)  (FT/S)
NY Harb Entrance 1650            43 51  340/ 10/ 12 1016.8          2/10
20 S Fire Island 1650            49 51  350/  8/ 10 1016.6          2/ 4
15 E Barnegat Li 1730               49                N/A           2/10
Hudson Canyon    1650            52 54  250/ 12/ 16 1015.8          3/10
Kings Point      1730            38 42   50/  7/  8 1017.8
Execution Rocks  1730            39      20/  6/  8   N/A
Western LI Sound NOT AVBL
Central LI Sound 1715            40      40/  6/ 10   N/A           1
Robbins Reef     1730            40     320/  3/  5 1017.5
$$


>>>>>>>>>>>>>>>>>>>>>>>>>>>> KEY <<<<<<<<<<<<<<<<<<<<<<<<<<<
>                                                          <
>     SKY/WX - Sky Condition/Present Weather               <
>     TMP    - Temperature in Fahrenheit                   <
>     DP     - Dew Point in Fahrenheit                     <
>     RH     - Relative Humidity in Percent                <
>     WIND   - Direction (from) and Speed in MPH           <
>     PRES   - Mean Sea Level Pressure (inches of Hg)      <
>     WCI    - Wind Chill Index                            <
>     VSB    - Visibility in Miles                         <
>     HX     - Heat Index                                  <
>     TC     - Temperature in Celsius                      <
>     VRB    - Varibale Wind Direction                     <
>                                                          <
>>>>>>>>>>>>>>>>>>>>>>>>>>>> KEY <<<<<<<<<<<<<<<<<<<<<<<<<<<




USA.gov is the U.S. government's official web portal to all federal, state and local government web resources and services.